Terminal Aerodrome Forecast
Issued by NWS North Platte, NE

Home | Current Version | Previous Version | Text Only | Print | Product List | Glossary Off
Versions: 1 2 3 4 5 6 7 8 9 10 11 12 13 14 15 16 17 18 19 20 21

000
FTUS43 KLBF 011700
TAFVTN
TAF
KVTN 011720Z 0118/0218 29010KT P6SM SCT050
     FM020100 VRB04KT P6SM SCT200
     FM021200 16010KT P6SM BKN080
     FM021500 17016G24KT P6SM BKN080=

USA.gov is the U.S. government's official web portal to all federal, state and local government web resources and services.